Time,TemperatureF,DewpointF,PressureIn,WindDirection,WindDirectionDegrees,WindSpeedMPH,WindSpeedGustMPH,Humidity,HourlyPrecipIn,Conditions,Clouds,dailyrainin,SoftwareType,DateUTC
2013-10-26 00:01:00,35.0,31.8,30.36,NW,319,0.0,0.0,88,0.00,CLR,,0.00,WeatherDisplay:10.37,2013-10-26 04:01:00,
2013-10-26 00:02:00,35.0,31.8,30.36,NW,320,0.0,0.0,88,0.00,CLR,,0.00,WeatherDisplay:10.37,2013-10-26 04:02:00,
2013-10-26 00:07:00,34.9,31.7,30.36,NW,319,0.0,0.0,88,0.00,CLR,,0.00,WeatherDisplay:10.37,2013-10-26 04:07:00,
2013-10-26 00:12:00,34.8,31.6,30.36,NW,319,0.0,0.0,88,0.00,CLR,,0.00,WeatherDisplay:10.37,2013-10-26 04:12:00,
2013-10-26 00:17:00,34.8,31.6,30.36,NW,320,0.0,0.0,88,0.00,CLR,,0.00,WeatherDisplay:10.37,2013-10-26 04:17:00,
2013-10-26 00:22:00,34.6,31.4,30.36,NW,320,1.2,1.2,88,0.00,CLR,,0.00,WeatherDisplay:10.37,2013-10-26 04:22:00,
2013-10-26 00:27:00,34.5,31.3,30.36,NW,319,0.0,0.0,88,0.00,CLR,,0.00,WeatherDisplay:10.37,2013-10-26 04:27:00,
2013-10-26 00:32:00,34.5,31.3,30.36,NW,319,0.0,0.0,88,0.00,CLR,,0.00,WeatherDisplay:10.37,2013-10-26 04:32:00,
2013-10-26 00:37:00,34.5,31.3,30.36,NW,320,0.0,0.0,88,0.00,CLR,,0.00,WeatherDisplay:10.37,2013-10-26 04:37:00,
2013-10-26 00:42:00,34.3,30.8,30.36,NW,320,0.0,0.0,87,0.00,CLR,,0.00,WeatherDisplay:10.37,2013-10-26 04:42:00,
2013-10-26 00:47:00,34.2,30.7,30.36,NW,320,0.0,0.0,87,0.00,CLR,,0.00,WeatherDisplay:10.37,2013-10-26 04:47:00,
2013-10-26 00:52:00,34.0,30.5,30.36,NW,319,0.0,0.0,87,0.00,CLR,,0.00,WeatherDisplay:10.37,2013-10-26 04:52:00,
2013-10-26 00:57:00,33.9,30.4,30.36,NW,319,0.0,0.0,87,0.00,CLR,,0.00,WeatherDisplay:10.37,2013-10-26 04:57:00,
2013-10-26 01:02:00,33.8,30.3,30.36,NW,320,0.0,0.0,87,0.00,CLR,,0.00,WeatherDisplay:10.37,2013-10-26 05:02:00,
2013-10-26 01:07:00,33.6,30.1,30.36,NW,320,0.0,0.0,87,0.00,CLR,,0.00,WeatherDisplay:10.37,2013-10-26 05:07:00,
2013-10-26 01:12:00,33.4,29.9,30.36,NW,319,0.0,0.0,87,0.00,CLR,,0.00,WeatherDisplay:10.37,2013-10-26 05:12:00,
2013-10-26 01:17:00,33.3,29.8,30.36,NW,319,0.0,0.0,87,0.00,CLR,,0.00,WeatherDisplay:10.37,2013-10-26 05:17:00,
2013-10-26 01:22:00,33.1,29.7,30.35,NW,319,0.0,0.0,87,0.00,CLR,,0.00,WeatherDisplay:10.37,2013-10-26 05:22:00,
2013-10-26 01:27:00,32.9,29.5,30.35,NW,319,1.2,1.2,87,0.00,CLR,,0.00,WeatherDisplay:10.37,2013-10-26 05:27:00,
2013-10-26 01:32:00,32.8,29.4,30.35,NW,319,0.0,0.0,87,0.00,CLR,,0.00,WeatherDisplay:10.37,2013-10-26 05:32:00,
2013-10-26 01:37:00,32.6,29.2,30.35,NW,319,0.0,0.0,87,0.00,CLR,,0.00,WeatherDisplay:10.37,2013-10-26 05:37:00,
2013-10-26 01:42:00,32.5,29.1,30.35,NW,319,0.0,0.0,87,0.00,CLR,,0.00,WeatherDisplay:10.37,2013-10-26 05:42:00,
2013-10-26 01:47:00,32.3,28.9,30.35,NW,319,0.0,0.0,87,0.00,CLR,,0.00,WeatherDisplay:10.37,2013-10-26 05:47:00,
2013-10-26 01:52:00,32.2,28.8,30.35,NW,319,0.0,0.0,87,0.00,CLR,,0.00,WeatherDisplay:10.37,2013-10-26 05:52:00,
2013-10-26 01:57:00,32.1,28.7,30.34,NW,319,0.0,0.0,87,0.00,CLR,,0.00,WeatherDisplay:10.37,2013-10-26 05:57:00,
2013-10-26 02:02:00,32.0,28.6,30.34,NW,319,0.0,0.0,87,0.00,CLR,,0.00,WeatherDisplay:10.37,2013-10-26 06:02:00,
2013-10-26 02:07:00,31.9,28.8,30.34,NW,319,0.0,0.0,88,0.00,CLR,,0.00,WeatherDisplay:10.37,2013-10-26 06:07:00,
2013-10-26 02:12:00,31.8,28.4,30.34,NW,319,0.0,0.0,87,0.00,CLR,,0.00,WeatherDisplay:10.37,2013-10-26 06:12:00,
2013-10-26 02:17:00,31.7,28.6,30.34,NW,319,0.0,0.0,88,0.00,CLR,,0.00,WeatherDisplay:10.37,2013-10-26 06:17:00,
2013-10-26 02:22:00,31.6,28.5,30.34,NW,319,0.0,0.0,88,0.00,CLR,,0.00,WeatherDisplay:10.37,2013-10-26 06:22:00,
2013-10-26 02:27:00,31.5,28.4,30.33,NW,319,0.0,0.0,88,0.00,CLR,,0.00,WeatherDisplay:10.37,2013-10-26 06:27:00,
2013-10-26 02:32:00,31.4,28.3,30.33,NW,319,0.0,0.0,88,0.00,CLR,,0.00,WeatherDisplay:10.37,2013-10-26 06:32:00,
2013-10-26 02:37:00,31.3,28.2,30.33,NW,319,0.0,0.0,88,0.00,CLR,,0.00,WeatherDisplay:10.37,2013-10-26 06:37:00,
2013-10-26 02:42:00,31.2,28.1,30.33,NW,319,0.0,0.0,88,0.00,CLR,,0.00,WeatherDisplay:10.37,2013-10-26 06:42:00,
2013-10-26 02:47:00,31.2,28.1,30.33,NW,319,0.0,0.0,88,0.00,CLR,,0.00,WeatherDisplay:10.37,2013-10-26 06:47:00,
2013-10-26 02:52:00,31.2,28.3,30.33,NW,319,0.0,0.0,89,0.00,CLR,,0.00,WeatherDisplay:10.37,2013-10-26 06:52:00,
2013-10-26 02:57:00,31.1,28.2,30.33,NW,319,0.0,0.0,89,0.00,CLR,,0.00,WeatherDisplay:10.37,2013-10-26 06:57:00,
2013-10-26 03:02:00,31.1,28.2,30.33,NW,319,0.0,0.0,89,0.00,CLR,,0.00,WeatherDisplay:10.37,2013-10-26 07:02:00,
2013-10-26 03:07:00,31.1,28.2,30.32,NW,319,0.0,0.0,89,0.00,CLR,,0.00,WeatherDisplay:10.37,2013-10-26 07:07:00,
2013-10-26 03:12:00,31.1,28.2,30.32,NW,319,0.0,0.0,89,0.00,CLR,,0.00,WeatherDisplay:10.37,2013-10-26 07:12:00,
2013-10-26 03:17:00,31.1,28.2,30.32,NW,319,0.0,0.0,89,0.00,CLR,,0.00,WeatherDisplay:10.37,2013-10-26 07:17:00,
2013-10-26 03:22:00,31.1,28.2,30.32,NW,319,0.0,0.0,89,0.00,CLR,,0.00,WeatherDisplay:10.37,2013-10-26 07:22:00,
2013-10-26 03:27:00,31.1,28.2,30.32,NW,319,0.0,0.0,89,0.00,CLR,,0.00,WeatherDisplay:10.37,2013-10-26 07:27:00,
2013-10-26 03:32:00,31.0,28.1,30.32,NW,319,0.0,0.0,89,0.00,CLR,,0.00,WeatherDisplay:10.37,2013-10-26 07:32:00,
2013-10-26 03:37:00,30.9,28.6,30.32,NW,319,0.0,0.0,91,0.00,CLR,,0.00,WeatherDisplay:10.37,2013-10-26 07:37:00,
2013-10-26 03:42:00,30.8,28.5,30.32,NW,319,0.0,0.0,91,0.00,CLR,,0.00,WeatherDisplay:10.37,2013-10-26 07:42:00,
2013-10-26 03:47:00,30.7,28.4,30.32,NW,319,0.0,0.0,91,0.00,CLR,,0.00,WeatherDisplay:10.37,2013-10-26 07:47:00,
2013-10-26 03:52:00,30.6,28.3,30.32,NW,319,0.0,0.0,91,0.00,CLR,,0.00,WeatherDisplay:10.37,2013-10-26 07:52:00,
2013-10-26 03:57:00,30.5,28.2,30.32,NW,319,0.0,0.0,91,0.00,CLR,,0.00,WeatherDisplay:10.37,2013-10-26 07:57:00,
2013-10-26 04:02:00,30.4,28.1,30.32,NW,319,0.0,0.0,91,0.00,CLR,,0.00,WeatherDisplay:10.37,2013-10-26 08:02:00,
2013-10-26 04:07:00,30.3,28.0,30.32,NW,319,0.0,0.0,91,0.00,CLR,,0.00,WeatherDisplay:10.37,2013-10-26 08:07:00,
2013-10-26 04:12:00,30.2,27.9,30.32,NW,319,0.0,0.0,91,0.00,CLR,,0.00,WeatherDisplay:10.37,2013-10-26 08:12:00,
2013-10-26 04:17:00,30.1,27.8,30.32,NW,319,0.0,0.0,91,0.00,CLR,,0.00,WeatherDisplay:10.37,2013-10-26 08:17:00,
2013-10-26 04:22:00,30.0,27.7,30.32,NW,319,0.0,0.0,91,0.00,CLR,,0.00,WeatherDisplay:10.37,2013-10-26 08:22:00,
2013-10-26 04:27:00,29.9,27.6,30.32,NW,319,0.0,0.0,91,0.00,CLR,,0.00,WeatherDisplay:10.37,2013-10-26 08:27:00,
2013-10-26 04:32:00,29.8,27.5,30.32,NW,319,0.0,0.0,91,0.00,CLR,,0.00,WeatherDisplay:10.37,2013-10-26 08:32:00,
2013-10-26 04:37:00,29.7,27.4,30.33,NW,319,0.0,0.0,91,0.00,CLR,,0.00,WeatherDisplay:10.37,2013-10-26 08:37:00,
2013-10-26 04:42:00,29.5,27.2,30.33,NW,319,0.0,0.0,91,0.00,CLR,,0.00,WeatherDisplay:10.37,2013-10-26 08:42:00,
2013-10-26 04:47:00,29.4,27.1,30.33,NW,319,0.0,0.0,91,0.00,CLR,,0.00,WeatherDisplay:10.37,2013-10-26 08:47:00,
2013-10-26 04:52:00,29.2,26.9,30.33,NW,319,0.0,0.0,91,0.00,CLR,,0.00,WeatherDisplay:10.37,2013-10-26 08:52:00,
2013-10-26 04:57:00,29.1,26.8,30.32,NW,319,0.0,0.0,91,0.00,CLR,,0.00,WeatherDisplay:10.37,2013-10-26 08:57:00,
2013-10-26 05:02:00,29.0,26.7,30.33,NW,319,0.0,0.0,91,0.00,CLR,,0.00,WeatherDisplay:10.37,2013-10-26 09:02:00,
2013-10-26 05:07:00,28.9,26.1,30.33,NW,319,0.0,0.0,89,0.00,CLR,,0.00,WeatherDisplay:10.37,2013-10-26 09:07:00,
2013-10-26 05:12:00,28.7,25.9,30.33,NW,319,0.0,0.0,89,0.00,CLR,,0.00,WeatherDisplay:10.37,2013-10-26 09:12:00,
2013-10-26 05:17:00,28.6,26.3,30.33,NW,319,0.0,0.0,91,0.00,CLR,,0.00,WeatherDisplay:10.37,2013-10-26 09:17:00,
2013-10-26 05:22:00,28.5,26.2,30.33,NW,319,0.0,0.0,91,0.00,CLR,,0.00,WeatherDisplay:10.37,2013-10-26 09:22:00,
2013-10-26 05:27:00,28.5,26.2,30.33,NW,319,0.0,0.0,91,0.00,CLR,,0.00,WeatherDisplay:10.37,2013-10-26 09:27:00,
2013-10-26 05:32:00,28.4,26.1,30.33,NW,319,0.0,0.0,91,0.00,CLR,,0.00,WeatherDisplay:10.37,2013-10-26 09:32:00,
2013-10-26 05:37:00,28.3,26.0,30.33,NW,319,0.0,0.0,91,0.00,CLR,,0.00,WeatherDisplay:10.37,2013-10-26 09:37:00,
2013-10-26 05:42:00,28.2,25.9,30.32,NW,319,0.0,0.0,91,0.00,CLR,,0.00,WeatherDisplay:10.37,2013-10-26 09:42:00,
2013-10-26 05:47:00,28.2,25.9,30.32,NW,319,0.0,0.0,91,0.00,CLR,,0.00,WeatherDisplay:10.37,2013-10-26 09:47:00,
2013-10-26 05:52:00,28.1,25.8,30.33,NW,319,0.0,0.0,91,0.00,CLR,,0.00,WeatherDisplay:10.37,2013-10-26 09:52:00,
2013-10-26 05:57:00,28.0,25.7,30.33,NW,319,0.0,0.0,91,0.00,CLR,,0.00,WeatherDisplay:10.37,2013-10-26 09:57:00,
2013-10-26 06:02:00,28.0,25.7,30.33,NW,319,0.0,0.0,91,0.00,CLR,,0.00,WeatherDisplay:10.37,2013-10-26 10:02:00,
2013-10-26 06:07:00,28.0,25.7,30.33,NW,319,0.0,0.0,91,0.00,CLR,,0.00,WeatherDisplay:10.37,2013-10-26 10:07:00,
2013-10-26 06:12:00,27.9,25.6,30.33,NW,319,0.0,0.0,91,0.00,CLR,,0.00,WeatherDisplay:10.37,2013-10-26 10:12:00,
2013-10-26 06:17:00,27.9,25.6,30.33,NW,319,0.0,0.0,91,0.00,CLR,,0.00,WeatherDisplay:10.37,2013-10-26 10:17:00,
2013-10-26 06:22:00,27.9,25.6,30.33,NW,319,0.0,0.0,91,0.00,CLR,,0.00,WeatherDisplay:10.37,2013-10-26 10:22:00,
2013-10-26 06:27:00,27.8,25.5,30.32,NW,319,0.0,0.0,91,0.00,CLR,,0.00,WeatherDisplay:10.37,2013-10-26 10:27:00,
2013-10-26 06:32:00,27.8,25.5,30.32,NW,319,0.0,0.0,91,0.00,CLR,,0.00,WeatherDisplay:10.37,2013-10-26 10:32:00,
2013-10-26 06:37:00,27.7,25.4,30.32,NW,319,0.0,0.0,91,0.00,CLR,,0.00,WeatherDisplay:10.37,2013-10-26 10:37:00,
2013-10-26 06:42:00,27.7,25.4,30.32,NW,319,0.0,0.0,91,0.00,CLR,,0.00,WeatherDisplay:10.37,2013-10-26 10:42:00,
2013-10-26 06:47:00,27.6,25.3,30.32,NW,319,0.0,0.0,91,0.00,CLR,,0.00,WeatherDisplay:10.37,2013-10-26 10:47:00,
2013-10-26 06:52:00,27.6,25.3,30.32,NW,319,0.0,0.0,91,0.00,,,0.00,WeatherDisplay:10.37,2013-10-26 10:52:00,
2013-10-26 06:57:00,27.5,25.2,30.32,NW,319,0.0,0.0,91,0.00,,,0.00,WeatherDisplay:10.37,2013-10-26 10:57:00,
2013-10-26 07:02:00,27.4,25.1,30.32,NW,319,0.0,0.0,91,0.00,,,0.00,WeatherDisplay:10.37,2013-10-26 11:02:00,
2013-10-26 07:07:00,27.4,25.1,30.32,NW,319,0.0,0.0,91,0.00,,,0.00,WeatherDisplay:10.37,2013-10-26 11:07:00,
2013-10-26 07:12:00,27.3,25.0,30.32,NW,319,0.0,0.0,91,0.00,,,0.00,WeatherDisplay:10.37,2013-10-26 11:12:00,
2013-10-26 07:17:00,27.3,25.0,30.32,NW,319,0.0,0.0,91,0.00,,,0.00,WeatherDisplay:10.37,2013-10-26 11:17:00,
2013-10-26 07:22:00,27.4,25.1,30.32,NW,319,0.0,0.0,91,0.00,,,0.00,WeatherDisplay:10.37,2013-10-26 11:22:00,
2013-10-26 07:27:00,27.3,25.3,30.32,NW,319,0.0,0.0,92,0.00,,,0.00,WeatherDisplay:10.37,2013-10-26 11:27:00,
2013-10-26 07:32:00,27.3,25.3,30.32,NW,319,0.0,0.0,92,0.00,,,0.00,WeatherDisplay:10.37,2013-10-26 11:32:00,
2013-10-26 07:37:00,27.4,25.1,30.32,NW,319,0.0,0.0,91,0.00,,,0.00,WeatherDisplay:10.37,2013-10-26 11:37:00,
2013-10-26 07:42:00,27.4,25.4,30.32,NW,319,0.0,0.0,92,0.00,,,0.00,WeatherDisplay:10.37,2013-10-26 11:42:00,
2013-10-26 07:47:00,27.4,25.4,30.32,NW,319,0.0,0.0,92,0.00,,,0.00,WeatherDisplay:10.37,2013-10-26 11:47:00,
2013-10-26 07:52:00,27.4,25.4,30.32,NW,319,0.0,0.0,92,0.00,,,0.00,WeatherDisplay:10.37,2013-10-26 11:52:00,
2013-10-26 07:57:00,27.5,25.5,30.32,NW,319,0.0,0.0,92,0.00,,,0.00,WeatherDisplay:10.37,2013-10-26 11:57:00,
2013-10-26 08:02:00,27.4,25.4,30.33,NW,319,0.0,0.0,92,0.00,,,0.00,WeatherDisplay:10.37,2013-10-26 12:02:00,
2013-10-26 08:07:00,27.4,25.4,30.33,NW,319,0.0,0.0,92,0.00,,,0.00,WeatherDisplay:10.37,2013-10-26 12:07:00,
2013-10-26 08:12:00,27.5,25.5,30.33,NW,319,0.0,0.0,92,0.00,,,0.00,WeatherDisplay:10.37,2013-10-26 12:12:00,
2013-10-26 08:17:00,27.7,25.7,30.33,NW,319,0.0,0.0,92,0.00,,,0.00,WeatherDisplay:10.37,2013-10-26 12:17:00,
2013-10-26 08:22:00,28.0,26.0,30.33,NW,319,0.0,0.0,92,0.00,,,0.00,WeatherDisplay:10.37,2013-10-26 12:22:00,
2013-10-26 08:27:00,28.6,26.8,30.33,NW,319,0.0,0.0,93,0.00,,,0.00,WeatherDisplay:10.37,2013-10-26 12:27:00,
2013-10-26 08:32:00,29.3,27.5,30.33,NW,319,0.0,0.0,93,0.00,,,0.00,WeatherDisplay:10.37,2013-10-26 12:32:00,
2013-10-26 08:37:00,29.9,28.1,30.33,NW,319,0.0,0.0,93,0.00,,,0.00,WeatherDisplay:10.37,2013-10-26 12:37:00,
2013-10-26 08:42:00,30.6,28.8,30.33,NW,319,0.0,0.0,93,0.00,,,0.00,WeatherDisplay:10.37,2013-10-26 12:42:00,
2013-10-26 08:47:00,31.4,29.6,30.33,NW,319,0.0,0.0,93,0.00,,,0.00,WeatherDisplay:10.37,2013-10-26 12:47:00,
2013-10-26 08:52:00,32.1,30.6,30.33,NW,307,0.0,0.0,94,0.00,,,0.00,WeatherDisplay:10.37,2013-10-26 12:52:00,
2013-10-26 08:57:00,32.9,31.4,30.33,SSW,211,0.0,0.0,94,0.00,,,0.00,WeatherDisplay:10.37,2013-10-26 12:57:00,
2013-10-26 09:02:00,33.6,32.1,30.33,SW,231,0.0,0.0,94,0.00,,,0.00,WeatherDisplay:10.37,2013-10-26 13:02:00,
2013-10-26 09:07:00,34.5,33.0,30.33,SSW,209,1.2,1.2,94,0.00,,,0.00,WeatherDisplay:10.37,2013-10-26 13:07:00,
2013-10-26 09:12:00,35.5,33.9,30.33,SSW,209,3.5,3.5,94,0.00,,,0.00,WeatherDisplay:10.37,2013-10-26 13:12:00,
2013-10-26 09:17:00,36.1,34.5,30.33,SSW,209,3.5,3.5,94,0.00,,,0.00,WeatherDisplay:10.37,2013-10-26 13:17:00,
2013-10-26 09:22:00,36.5,34.9,30.33,West,259,5.8,5.8,94,0.00,,,0.00,WeatherDisplay:10.37,2013-10-26 13:22:00,
2013-10-26 09:27:00,36.7,35.1,30.33,West,268,0.0,0.0,94,0.00,,,0.00,WeatherDisplay:10.37,2013-10-26 13:27:00,
2013-10-26 09:32:00,37.4,35.8,30.33,West,268,0.0,0.7,94,0.00,,,0.00,WeatherDisplay:10.37,2013-10-26 13:32:00,
2013-10-26 09:37:00,37.9,36.1,30.33,West,268,3.5,3.5,93,0.00,,,0.00,WeatherDisplay:10.37,2013-10-26 13:37:00,
2013-10-26 09:42:00,38.5,36.7,30.33,West,268,0.0,0.0,93,0.00,,,0.00,WeatherDisplay:10.37,2013-10-26 13:42:00,
2013-10-26 09:47:00,39.5,37.4,30.33,WSW,242,3.5,3.5,92,0.00,,,0.00,WeatherDisplay:10.37,2013-10-26 13:47:00,
2013-10-26 09:52:00,40.7,38.3,30.33,SW,214,4.6,4.6,91,0.00,,,0.00,WeatherDisplay:10.37,2013-10-26 13:52:00,
2013-10-26 09:57:00,41.8,38.5,30.33,SSW,206,4.6,4.6,88,0.00,,,0.00,WeatherDisplay:10.37,2013-10-26 13:57:00,
2013-10-26 10:02:00,42.6,37.5,30.32,SSW,205,3.5,3.5,82,0.00,,,0.00,WeatherDisplay:10.37,2013-10-26 14:02:00,
2013-10-26 10:07:00,43.4,37.3,30.32,SSW,207,5.0,5.0,79,0.00,,,0.00,WeatherDisplay:10.37,2013-10-26 14:07:00,
2013-10-26 10:12:00,44.1,37.0,30.32,SW,218,3.5,3.5,76,0.00,,,0.00,WeatherDisplay:10.37,2013-10-26 14:12:00,
2013-10-26 10:17:00,44.8,36.3,30.32,SW,232,5.8,5.8,72,0.00,,,0.00,WeatherDisplay:10.37,2013-10-26 14:17:00,
2013-10-26 10:22:00,45.6,36.4,30.32,SSW,206,2.3,2.3,70,0.00,,,0.00,WeatherDisplay:10.37,2013-10-26 14:22:00,
2013-10-26 10:27:00,46.3,35.9,30.32,WNW,287,6.9,6.9,67,0.00,,,0.00,WeatherDisplay:10.37,2013-10-26 14:27:00,
2013-10-26 10:32:00,46.8,34.9,30.32,SW,221,11.5,11.5,63,0.00,,,0.00,WeatherDisplay:10.37,2013-10-26 14:32:00,
2013-10-26 10:37:00,47.3,34.1,30.32,SSW,201,6.9,6.9,60,0.00,,,0.00,WeatherDisplay:10.37,2013-10-26 14:37:00,
2013-10-26 10:42:00,47.8,34.6,30.32,SW,232,2.3,2.3,60,0.00,,,0.00,WeatherDisplay:10.37,2013-10-26 14:42:00,
2013-10-26 10:47:00,48.6,34.9,30.31,SSW,205,5.8,5.8,59,0.00,,,0.00,WeatherDisplay:10.37,2013-10-26 14:47:00,
2013-10-26 10:52:00,49.2,35.0,30.31,SSW,205,6.9,6.9,58,0.00,,,0.00,WeatherDisplay:10.37,2013-10-26 14:52:00,
2013-10-26 10:57:00,49.7,33.2,30.31,SSW,196,10.4,10.4,53,0.00,,,0.00,WeatherDisplay:10.37,2013-10-26 14:57:00,
2013-10-26 11:02:00,50.0,33.1,30.31,SW,225,11.0,11.0,52,0.00,,,0.00,WeatherDisplay:10.37,2013-10-26 15:02:00,
2013-10-26 11:07:00,50.2,33.2,30.31,SSW,207,11.5,11.5,52,0.00,,,0.00,WeatherDisplay:10.37,2013-10-26 15:07:00,
2013-10-26 11:12:00,50.7,35.1,30.31,WSW,240,6.9,6.9,55,0.00,,,0.00,WeatherDisplay:10.37,2013-10-26 15:12:00,
2013-10-26 11:17:00,51.3,34.3,30.30,WSW,254,2.3,2.3,52,0.00,,,0.00,WeatherDisplay:10.37,2013-10-26 15:17:00,
2013-10-26 11:22:00,51.9,33.8,30.30,SW,220,13.8,13.8,50,0.00,,,0.00,WeatherDisplay:10.37,2013-10-26 15:22:00,
2013-10-26 11:27:00,52.4,33.8,30.30,SSW,203,13.8,13.8,49,0.00,,,0.00,WeatherDisplay:10.37,2013-10-26 15:27:00,
2013-10-26 11:32:00,52.7,34.1,30.30,South,188,15.0,15.0,49,0.00,,,0.00,WeatherDisplay:10.37,2013-10-26 15:32:00,
2013-10-26 11:37:00,52.9,33.2,30.30,SW,215,11.5,11.5,47,0.00,,,0.00,WeatherDisplay:10.37,2013-10-26 15:37:00,
2013-10-26 11:42:00,53.1,33.4,30.29,SSW,196,6.9,6.9,47,0.00,,,0.00,WeatherDisplay:10.37,2013-10-26 15:42:00,
2013-10-26 11:47:00,53.6,34.4,30.29,SSW,209,9.0,9.0,48,0.00,,,0.00,WeatherDisplay:10.37,2013-10-26 15:47:00,
2013-10-26 11:52:00,53.8,32.9,30.29,SSW,200,11.5,11.5,45,0.00,,,0.00,WeatherDisplay:10.37,2013-10-26 15:52:00,
2013-10-26 11:57:00,54.0,32.6,30.28,SSW,204,12.7,12.7,44,0.00,,,0.00,WeatherDisplay:10.37,2013-10-26 15:57:00,
2013-10-26 12:02:00,54.3,33.4,30.28,SSW,206,9.2,9.2,45,0.00,,,0.00,WeatherDisplay:10.37,2013-10-26 16:02:00,
2013-10-26 12:07:00,54.7,32.6,30.28,SSW,210,17.3,17.3,43,0.00,,,0.00,WeatherDisplay:10.37,2013-10-26 16:07:00,
2013-10-26 12:12:00,54.9,32.8,30.28,SSW,212,9.2,9.2,43,0.00,,,0.00,WeatherDisplay:10.37,2013-10-26 16:12:00,
2013-10-26 12:17:00,55.1,33.0,30.28,West,277,19.6,19.6,43,0.00,,,0.00,WeatherDisplay:10.37,2013-10-26 16:17:00,
2013-10-26 12:22:00,55.1,32.4,30.28,SW,215,19.6,19.6,42,0.00,,,0.00,WeatherDisplay:10.37,2013-10-26 16:22:00,
2013-10-26 12:27:00,55.1,32.4,30.27,West,268,11.5,11.5,42,0.00,,,0.00,WeatherDisplay:10.37,2013-10-26 16:27:00,
2013-10-26 12:32:00,55.3,33.7,30.27,SSW,205,12.7,12.7,44,0.00,,,0.00,WeatherDisplay:10.37,2013-10-26 16:32:00,
2013-10-26 12:37:00,55.4,32.7,30.26,South,188,9.2,9.2,42,0.00,,,0.00,WeatherDisplay:10.37,2013-10-26 16:37:00,
2013-10-26 12:42:00,55.7,34.1,30.26,SW,236,10.4,10.4,44,0.00,,,0.00,WeatherDisplay:10.37,2013-10-26 16:42:00,
2013-10-26 12:47:00,55.9,33.1,30.26,SSW,198,11.5,11.5,42,0.00,,,0.00,WeatherDisplay:10.37,2013-10-26 16:47:00,
2013-10-26 12:52:00,56.4,34.2,30.25,SW,217,9.2,9.2,43,0.00,,,0.00,WeatherDisplay:10.37,2013-10-26 16:52:00,
2013-10-26 12:57:00,56.7,33.2,30.25,WNW,288,10.4,10.4,41,0.00,,,0.00,WeatherDisplay:10.37,2013-10-26 16:57:00,
2013-10-26 13:02:00,56.6,32.5,30.25,SSW,206,10.0,10.0,40,0.00,,,0.00,WeatherDisplay:10.37,2013-10-26 17:02:00,
2013-10-26 13:07:00,56.8,33.3,30.24,SSW,205,10.4,10.4,41,0.00,,,0.00,WeatherDisplay:10.37,2013-10-26 17:07:00,
2013-10-26 13:12:00,56.8,33.3,30.24,SSW,209,21.9,21.9,41,0.00,,,0.00,WeatherDisplay:10.37,2013-10-26 17:12:00,
2013-10-26 13:17:00,56.8,32.7,30.24,SSW,195,11.5,11.5,40,0.00,,,0.00,WeatherDisplay:10.37,2013-10-26 17:17:00,
2013-10-26 13:22:00,57.0,34.1,30.23,West,260,6.9,6.9,42,0.00,,,0.00,WeatherDisplay:10.37,2013-10-26 17:22:00,
2013-10-26 13:27:00,57.4,33.9,30.23,NNW,327,6.9,6.9,41,0.00,,,0.00,WeatherDisplay:10.37,2013-10-26 17:27:00,
2013-10-26 13:32:00,57.6,33.4,30.22,West,271,11.5,11.5,40,0.00,,,0.00,WeatherDisplay:10.37,2013-10-26 17:32:00,
2013-10-26 13:37:00,57.6,32.2,30.22,SSW,209,11.5,11.5,38,0.00,,,0.00,WeatherDisplay:10.37,2013-10-26 17:37:00,
2013-10-26 13:42:00,57.7,32.9,30.22,SW,225,12.7,12.7,39,0.00,,,0.00,WeatherDisplay:10.37,2013-10-26 17:42:00,
2013-10-26 13:47:00,57.8,32.3,30.21,SSW,213,16.1,16.1,38,0.00,,,0.00,WeatherDisplay:10.37,2013-10-26 17:47:00,
2013-10-26 13:52:00,57.8,33.6,30.21,West,267,5.8,5.8,40,0.00,,,0.00,WeatherDisplay:10.37,2013-10-26 17:52:00,
2013-10-26 13:57:00,58.0,33.2,30.20,South,180,8.0,8.0,39,0.00,,,0.00,WeatherDisplay:10.37,2013-10-26 17:57:00,
2013-10-26 14:02:00,58.6,34.3,30.20,WSW,237,11.5,11.5,40,0.00,,,0.00,WeatherDisplay:10.37,2013-10-26 18:02:00,
2013-10-26 14:07:00,58.8,33.2,30.20,SW,236,13.8,13.8,38,0.00,,,0.00,WeatherDisplay:10.37,2013-10-26 18:07:00,
2013-10-26 14:12:00,58.8,33.2,30.19,WNW,288,12.7,12.7,38,0.00,,,0.00,WeatherDisplay:10.37,2013-10-26 18:12:00,
2013-10-26 14:17:00,59.0,33.4,30.19,SSW,211,10.4,10.4,38,0.00,,,0.00,WeatherDisplay:10.37,2013-10-26 18:17:00,
2013-10-26 14:22:00,59.1,33.5,30.18,WSW,252,12.7,12.7,38,0.00,,,0.00,WeatherDisplay:10.37,2013-10-26 18:22:00,
2013-10-26 14:27:00,59.1,33.5,30.18,SW,219,12.7,12.7,38,0.00,,,0.00,WeatherDisplay:10.37,2013-10-26 18:27:00,
2013-10-26 14:32:00,59.1,33.5,30.18,SW,230,11.5,11.5,38,0.00,,,0.00,WeatherDisplay:10.37,2013-10-26 18:32:00,
2013-10-26 14:37:00,59.1,33.5,30.18,SSW,201,12.7,12.7,38,0.00,,,0.00,WeatherDisplay:10.37,2013-10-26 18:37:00,
2013-10-26 14:42:00,59.1,33.5,30.17,West,260,12.7,12.7,38,0.00,,,0.00,WeatherDisplay:10.37,2013-10-26 18:42:00,
2013-10-26 14:48:00,59.1,33.5,30.17,SW,215,8.1,8.1,38,0.00,,,0.00,WeatherDisplay:10.37,2013-10-26 18:48:00,
2013-10-26 14:53:00,59.1,34.1,30.17,SW,232,12.7,12.7,39,0.00,,,0.00,WeatherDisplay:10.37,2013-10-26 18:53:00,
2013-10-26 14:58:00,59.4,33.1,30.17,SSW,202,12.7,12.7,37,0.00,,,0.00,WeatherDisplay:10.37,2013-10-26 18:58:00,
2013-10-26 15:03:00,59.5,33.2,30.17,WSW,242,13.8,13.8,37,0.00,,,0.00,WeatherDisplay:10.37,2013-10-26 19:03:00,
2013-10-26 15:08:00,59.5,33.2,30.16,SW,215,8.1,8.1,37,0.00,,,0.00,WeatherDisplay:10.37,2013-10-26 19:08:00,
2013-10-26 15:13:00,59.4,33.1,30.16,SW,228,12.7,12.7,37,0.00,,,0.00,WeatherDisplay:10.37,2013-10-26 19:13:00,
2013-10-26 15:18:00,59.6,33.9,30.16,SSW,200,6.9,7.1,38,0.00,,,0.00,WeatherDisplay:10.37,2013-10-26 19:18:00,
2013-10-26 15:23:00,59.9,33.5,30.15,WSW,239,9.2,9.2,37,0.00,,,0.00,WeatherDisplay:10.37,2013-10-26 19:23:00,
2013-10-26 15:28:00,60.1,33.7,30.15,SW,236,6.9,6.9,37,0.00,,,0.00,WeatherDisplay:10.37,2013-10-26 19:28:00,
2013-10-26 15:33:00,60.2,32.4,30.15,South,185,15.0,15.0,35,0.00,,,0.00,WeatherDisplay:10.37,2013-10-26 19:33:00,
2013-10-26 15:38:00,60.0,32.9,30.15,SW,229,11.5,11.5,36,0.00,,,0.00,WeatherDisplay:10.37,2013-10-26 19:38:00,
2013-10-26 15:43:00,59.8,32.8,30.15,WSW,252,11.5,11.5,36,0.00,,,0.00,WeatherDisplay:10.37,2013-10-26 19:43:00,
2013-10-26 15:48:00,59.7,32.7,30.14,WSW,245,12.7,12.7,36,0.00,,,0.00,WeatherDisplay:10.37,2013-10-26 19:48:00,
2013-10-26 15:53:00,59.7,32.7,30.14,SSW,205,7.0,7.0,36,0.00,,,0.00,WeatherDisplay:10.37,2013-10-26 19:53:00,
2013-10-26 15:58:00,59.8,32.8,30.14,WSW,241,4.6,4.6,36,0.00,,,0.00,WeatherDisplay:10.37,2013-10-26 19:58:00,
2013-10-26 16:03:00,60.0,33.6,30.14,SW,234,12.7,12.7,37,0.00,,,0.00,WeatherDisplay:10.37,2013-10-26 20:03:00,
2013-10-26 16:08:00,60.0,32.9,30.14,SSW,201,10.0,10.0,36,0.00,,,0.00,WeatherDisplay:10.37,2013-10-26 20:08:00,
2013-10-26 16:13:00,59.9,32.9,30.14,SSW,203,11.5,11.5,36,0.00,,,0.00,WeatherDisplay:10.37,2013-10-26 20:13:00,
2013-10-26 16:18:00,59.7,32.7,30.13,SW,219,7.0,7.0,36,0.00,,,0.00,WeatherDisplay:10.37,2013-10-26 20:18:00,
2013-10-26 16:23:00,59.6,33.3,30.13,SSW,196,13.8,13.8,37,0.00,,,0.00,WeatherDisplay:10.37,2013-10-26 20:23:00,
2013-10-26 16:28:00,59.5,33.9,30.13,WSW,254,3.5,3.5,38,0.00,,,0.00,WeatherDisplay:10.37,2013-10-26 20:28:00,
2013-10-26 16:33:00,59.6,33.3,30.13,SSW,213,10.4,10.4,37,0.00,,,0.00,WeatherDisplay:10.37,2013-10-26 20:33:00,
2013-10-26 16:38:00,59.7,34.0,30.12,South,179,5.8,5.8,38,0.00,,,0.00,WeatherDisplay:10.37,2013-10-26 20:38:00,
2013-10-26 16:43:00,59.7,33.4,30.12,SW,215,4.6,7.5,37,0.00,,,0.00,WeatherDisplay:10.37,2013-10-26 20:43:00,
2013-10-26 16:48:00,59.7,33.4,30.12,WNW,282,6.9,6.9,37,0.00,,,0.00,WeatherDisplay:10.37,2013-10-26 20:48:00,
2013-10-26 16:53:00,59.6,33.3,30.11,SSW,209,11.5,11.5,37,0.00,,,0.00,WeatherDisplay:10.37,2013-10-26 20:53:00,
2013-10-26 16:58:00,59.5,33.2,30.11,SSW,211,11.5,11.5,37,0.00,,,0.00,WeatherDisplay:10.37,2013-10-26 20:58:00,
2013-10-26 17:03:00,59.1,32.8,30.11,SSW,195,10.4,10.4,37,0.00,CLR,,0.00,WeatherDisplay:10.37,2013-10-26 21:03:00,
2013-10-26 17:08:00,58.4,32.9,30.11,SW,224,10.4,10.4,38,0.00,CLR,,0.00,WeatherDisplay:10.37,2013-10-26 21:08:00,
2013-10-26 17:13:00,57.8,32.3,30.11,SW,219,10.4,10.4,38,0.00,CLR,,0.00,WeatherDisplay:10.37,2013-10-26 21:13:00,
2013-10-26 17:18:00,57.1,31.7,30.11,SSW,198,13.8,13.8,38,0.00,CLR,,0.00,WeatherDisplay:10.37,2013-10-26 21:18:00,
2013-10-26 17:23:00,56.7,32.0,30.11,SSW,203,11.5,11.5,39,0.00,CLR,,0.00,WeatherDisplay:10.37,2013-10-26 21:23:00,
2013-10-26 17:28:00,56.3,32.3,30.11,SW,230,11.5,11.5,40,0.00,CLR,,0.00,WeatherDisplay:10.37,2013-10-26 21:28:00,
2013-10-26 17:33:00,55.9,31.9,30.11,SSW,207,6.9,6.9,40,0.00,CLR,,0.00,WeatherDisplay:10.37,2013-10-26 21:33:00,
2013-10-26 17:38:00,55.7,32.3,30.11,SSW,195,13.8,13.8,41,0.00,CLR,,0.00,WeatherDisplay:10.37,2013-10-26 21:38:00,
2013-10-26 17:43:00,55.5,32.8,30.11,SSW,193,6.9,6.9,42,0.00,CLR,,0.00,WeatherDisplay:10.37,2013-10-26 21:43:00,
2013-10-26 17:48:00,55.2,32.5,30.11,SW,215,12.7,12.7,42,0.00,CLR,,0.00,WeatherDisplay:10.37,2013-10-26 21:48:00,
2013-10-26 17:53:00,55.0,32.9,30.10,South,186,10.4,10.4,43,0.00,CLR,,0.00,WeatherDisplay:10.37,2013-10-26 21:53:00,
2013-10-26 17:58:00,54.8,33.3,30.10,SSW,210,6.0,6.0,44,0.00,CLR,,0.00,WeatherDisplay:10.37,2013-10-26 21:58:00,
2013-10-26 18:03:00,54.5,33.0,30.11,SSW,203,5.8,5.8,44,0.00,CLR,,0.00,WeatherDisplay:10.37,2013-10-26 22:03:00,
2013-10-26 18:08:00,54.3,32.8,30.11,SSW,198,3.5,3.5,44,0.00,CLR,,0.00,WeatherDisplay:10.37,2013-10-26 22:08:00,
2013-10-26 18:13:00,54.0,33.1,30.10,SW,218,5.8,5.8,45,0.00,CLR,,0.00,WeatherDisplay:10.37,2013-10-26 22:13:00,
2013-10-26 18:18:00,53.7,33.4,30.10,SW,215,3.5,3.5,46,0.00,CLR,,0.00,WeatherDisplay:10.37,2013-10-26 22:18:00,
2013-10-26 18:23:00,53.3,33.0,30.10,SSW,211,3.5,3.5,46,0.00,CLR,,0.00,WeatherDisplay:10.37,2013-10-26 22:23:00,
2013-10-26 18:28:00,53.0,33.3,30.11,SSW,212,0.0,0.0,47,0.00,CLR,,0.00,WeatherDisplay:10.37,2013-10-26 22:28:00,
2013-10-26 18:33:00,52.7,33.5,30.11,SSW,212,0.0,0.0,48,0.00,CLR,,0.00,WeatherDisplay:10.37,2013-10-26 22:33:00,
2013-10-26 18:38:00,52.4,33.8,30.11,SSW,212,0.0,0.0,49,0.00,CLR,,0.00,WeatherDisplay:10.37,2013-10-26 22:38:00,
2013-10-26 18:43:00,51.9,34.3,30.12,SSW,212,1.2,1.2,51,0.00,CLR,,0.00,WeatherDisplay:10.37,2013-10-26 22:43:00,
2013-10-26 18:48:00,51.3,34.3,30.12,SSW,212,0.0,0.0,52,0.00,CLR,,0.00,WeatherDisplay:10.37,2013-10-26 22:48:00,
2013-10-26 18:53:00,50.9,34.8,30.11,SSW,212,0.0,0.0,54,0.00,CLR,,0.00,WeatherDisplay:10.37,2013-10-26 22:53:00,
2013-10-26 18:58:00,50.4,34.4,30.11,SSW,212,0.0,0.0,54,0.00,CLR,,0.00,WeatherDisplay:10.37,2013-10-26 22:58:00,
2013-10-26 19:03:00,49.8,34.7,30.11,SSW,212,0.0,0.0,56,0.00,CLR,,0.00,WeatherDisplay:10.37,2013-10-26 23:03:00,
2013-10-26 19:08:00,49.3,35.1,30.11,SSW,212,0.0,0.0,58,0.00,CLR,,0.00,WeatherDisplay:10.37,2013-10-26 23:08:00,
2013-10-26 19:13:00,48.7,34.6,30.11,SSW,212,0.0,0.0,58,0.00,CLR,,0.00,WeatherDisplay:10.37,2013-10-26 23:13:00,
2013-10-26 19:18:00,48.1,34.4,30.11,SSW,211,0.0,0.0,59,0.00,CLR,,0.00,WeatherDisplay:10.37,2013-10-26 23:18:00,
2013-10-26 19:23:00,47.5,33.9,30.11,SSW,212,0.0,0.0,59,0.00,CLR,,0.00,WeatherDisplay:10.37,2013-10-26 23:23:00,
2013-10-26 19:28:00,46.9,34.6,30.11,SSW,212,0.0,0.0,62,0.00,CLR,,0.00,WeatherDisplay:10.37,2013-10-26 23:28:00,
2013-10-26 19:33:00,46.3,34.4,30.11,SSW,211,0.0,0.0,63,0.00,CLR,,0.00,WeatherDisplay:10.37,2013-10-26 23:33:00,
2013-10-26 19:38:00,45.9,34.0,30.11,SSW,212,0.0,0.0,63,0.00,CLR,,0.00,WeatherDisplay:10.37,2013-10-26 23:38:00,
2013-10-26 19:43:00,45.5,34.4,30.11,SSW,212,0.0,0.0,65,0.00,CLR,,0.00,WeatherDisplay:10.37,2013-10-26 23:43:00,
2013-10-26 19:48:00,45.1,34.4,30.11,SSW,211,0.0,0.0,66,0.00,CLR,,0.00,WeatherDisplay:10.37,2013-10-26 23:48:00,
2013-10-26 19:53:00,44.8,34.5,30.11,SSW,212,0.0,0.0,67,0.00,CLR,,0.00,WeatherDisplay:10.37,2013-10-26 23:53:00,
2013-10-26 19:58:00,44.5,34.2,30.11,SSW,212,0.0,0.0,67,0.00,CLR,,0.00,WeatherDisplay:10.37,2013-10-26 23:58:00,
2013-10-26 20:03:00,44.2,34.3,30.11,SSW,212,0.0,0.0,68,0.00,CLR,,0.00,WeatherDisplay:10.37,2013-10-27 00:03:00,
2013-10-26 20:08:00,43.9,34.0,30.11,SSW,212,0.0,0.0,68,0.00,CLR,,0.00,WeatherDisplay:10.37,2013-10-27 00:08:00,
2013-10-26 20:13:00,43.7,34.2,30.11,SSW,211,0.0,0.0,69,0.00,CLR,,0.00,WeatherDisplay:10.37,2013-10-27 00:13:00,
2013-10-26 20:18:00,43.5,34.0,30.11,SSW,212,0.0,0.0,69,0.00,CLR,,0.00,WeatherDisplay:10.37,2013-10-27 00:18:00,
2013-10-26 20:23:00,43.3,34.2,30.11,SSW,212,0.0,0.0,70,0.00,CLR,,0.00,WeatherDisplay:10.37,2013-10-27 00:23:00,
2013-10-26 20:28:00,43.2,34.4,30.11,SSW,211,0.0,0.0,71,0.00,CLR,,0.00,WeatherDisplay:10.37,2013-10-27 00:28:00,
2013-10-26 20:33:00,43.0,34.2,30.11,SSW,212,3.0,3.0,71,0.00,CLR,,0.00,WeatherDisplay:10.37,2013-10-27 00:33:00,
2013-10-26 20:38:00,42.9,34.1,30.10,SSW,212,0.0,0.0,71,0.00,CLR,,0.00,WeatherDisplay:10.37,2013-10-27 00:38:00,
2013-10-26 20:43:00,42.8,34.4,30.10,SSW,211,3.5,3.5,72,0.00,CLR,,0.00,WeatherDisplay:10.37,2013-10-27 00:43:00,
2013-10-26 20:48:00,42.7,34.3,30.10,SSW,211,1.2,1.2,72,0.00,CLR,,0.00,WeatherDisplay:10.37,2013-10-27 00:48:00,
2013-10-26 20:53:00,42.6,34.2,30.10,SSW,211,0.0,0.0,72,0.00,CLR,,0.00,WeatherDisplay:10.37,2013-10-27 00:53:00,
2013-10-26 20:58:00,42.5,34.5,30.10,SSW,211,0.0,0.0,73,0.00,CLR,,0.00,WeatherDisplay:10.37,2013-10-27 00:58:00,
2013-10-26 21:03:00,42.4,34.4,30.09,SSW,212,3.5,3.5,73,0.00,CLR,,0.00,WeatherDisplay:10.37,2013-10-27 01:03:00,
2013-10-26 21:08:00,42.3,34.9,30.09,SSW,212,2.3,2.3,75,0.00,CLR,,0.00,WeatherDisplay:10.37,2013-10-27 01:08:00,
2013-10-26 21:13:00,42.3,34.9,30.09,SSW,212,2.3,2.3,75,0.00,CLR,,0.00,WeatherDisplay:10.37,2013-10-27 01:13:00,
2013-10-26 21:18:00,42.2,34.8,30.09,SSW,211,3.5,3.5,75,0.00,CLR,,0.00,WeatherDisplay:10.37,2013-10-27 01:18:00,
2013-10-26 21:23:00,42.1,34.7,30.09,SSW,196,4.6,4.6,75,0.00,CLR,,0.00,WeatherDisplay:10.37,2013-10-27 01:23:00,
2013-10-26 21:28:00,42.2,35.2,30.09,SW,218,6.9,6.9,76,0.00,CLR,,0.00,WeatherDisplay:10.37,2013-10-27 01:28:00,
2013-10-26 21:33:00,42.3,35.3,30.09,SW,217,5.8,5.8,76,0.00,CLR,,0.00,WeatherDisplay:10.37,2013-10-27 01:33:00,
2013-10-26 21:38:00,42.5,35.5,30.09,SW,215,4.6,4.6,76,0.00,CLR,,0.00,WeatherDisplay:10.37,2013-10-27 01:38:00,
2013-10-26 21:43:00,42.7,35.7,30.09,SW,215,3.5,3.5,76,0.00,CLR,,0.00,WeatherDisplay:10.37,2013-10-27 01:43:00,
2013-10-26 21:48:00,42.9,35.5,30.09,SSW,198,3.5,3.5,75,0.00,CLR,,0.00,WeatherDisplay:10.37,2013-10-27 01:48:00,
2013-10-26 21:53:00,43.1,35.7,30.09,SSW,206,3.5,0.0,75,0.00,CLR,,0.00,WeatherDisplay:10.37,2013-10-27 01:53:00,
2013-10-26 21:58:00,43.2,35.8,30.09,SSW,207,0.0,0.0,75,0.00,CLR,,0.00,WeatherDisplay:10.37,2013-10-27 01:58:00,
2013-10-26 22:03:00,43.3,35.2,30.08,SSW,207,3.5,0.0,73,0.00,CLR,,0.00,WeatherDisplay:10.37,2013-10-27 02:03:00,
2013-10-26 22:08:00,43.4,35.3,30.08,SSW,206,3.5,3.5,73,0.00,CLR,,0.00,WeatherDisplay:10.37,2013-10-27 02:08:00,
2013-10-26 22:13:00,43.4,35.3,30.09,SSW,206,0.0,0.0,73,0.00,CLR,,0.00,WeatherDisplay:10.37,2013-10-27 02:13:00,
2013-10-26 22:18:00,43.4,35.3,30.09,SSW,207,1.2,0.0,73,0.00,CLR,,0.00,WeatherDisplay:10.37,2013-10-27 02:18:00,
2013-10-26 22:23:00,43.4,35.3,30.09,SSW,206,0.0,0.0,73,0.00,CLR,,0.00,WeatherDisplay:10.37,2013-10-27 02:23:00,
2013-10-26 22:28:00,43.4,35.3,30.09,SSW,207,0.0,0.0,73,0.00,CLR,,0.00,WeatherDisplay:10.37,2013-10-27 02:28:00,
2013-10-26 22:33:00,43.4,35.3,30.08,SSW,207,1.2,1.2,73,0.00,CLR,,0.00,WeatherDisplay:10.37,2013-10-27 02:33:00,
2013-10-26 22:38:00,43.3,35.2,30.08,SSW,206,0.0,0.0,73,0.00,CLR,,0.00,WeatherDisplay:10.37,2013-10-27 02:38:00,
2013-10-26 22:43:00,43.3,35.2,30.09,SSW,207,0.0,0.0,73,0.00,CLR,,0.00,WeatherDisplay:10.37,2013-10-27 02:43:00,
2013-10-26 22:48:00,43.2,35.1,30.08,SSW,207,3.5,3.5,73,0.00,CLR,,0.00,WeatherDisplay:10.37,2013-10-27 02:48:00,
2013-10-26 22:53:00,43.1,35.0,30.08,SSW,207,2.3,2.3,73,0.00,CLR,,0.00,WeatherDisplay:10.37,2013-10-27 02:53:00,
2013-10-26 22:58:00,43.1,35.7,30.08,SSW,207,3.5,3.5,75,0.00,CLR,,0.00,WeatherDisplay:10.37,2013-10-27 02:58:00,
2013-10-26 23:03:00,43.2,35.8,30.08,SSW,206,3.5,3.5,75,0.00,CLR,,0.00,WeatherDisplay:10.37,2013-10-27 03:03:00,
2013-10-26 23:08:00,43.2,36.1,30.08,SSW,207,2.3,2.3,76,0.00,CLR,,0.00,WeatherDisplay:10.37,2013-10-27 03:08:00,
2013-10-26 23:13:00,43.2,36.1,30.08,SSW,207,0.0,0.0,76,0.00,CLR,,0.00,WeatherDisplay:10.37,2013-10-27 03:13:00,
2013-10-26 23:18:00,43.2,36.1,30.08,SSW,206,0.0,0.0,76,0.00,CLR,,0.00,WeatherDisplay:10.37,2013-10-27 03:18:00,
2013-10-26 23:23:00,43.2,36.1,30.07,SSW,207,0.0,0.0,76,0.00,CLR,,0.00,WeatherDisplay:10.37,2013-10-27 03:23:00,
2013-10-26 23:28:00,43.2,36.1,30.07,SSW,207,0.0,0.0,76,0.00,CLR,,0.00,WeatherDisplay:10.37,2013-10-27 03:28:00,
2013-10-26 23:33:00,43.3,36.2,30.07,SSW,207,4.6,4.6,76,0.00,CLR,,0.00,WeatherDisplay:10.37,2013-10-27 03:33:00,
2013-10-26 23:38:00,43.3,36.2,30.07,SSW,206,4.6,4.6,76,0.00,CLR,,0.00,WeatherDisplay:10.37,2013-10-27 03:38:00,
2013-10-26 23:43:00,43.4,36.7,30.07,SSW,207,4.6,4.6,77,0.00,CLR,,0.00,WeatherDisplay:10.37,2013-10-27 03:43:00,
2013-10-26 23:48:00,43.5,37.1,30.07,SSW,207,3.5,3.5,78,0.00,CLR,,0.00,WeatherDisplay:10.37,2013-10-27 03:48:00,
2013-10-26 23:53:00,43.7,37.0,30.07,SSW,207,3.5,3.5,77,0.00,CLR,,0.00,WeatherDisplay:10.37,2013-10-27 03:53:00,
2013-10-26 23:58:00,43.9,37.2,30.07,SSW,207,5.8,5.8,77,0.00,CLR,,0.00,WeatherDisplay:10.37,2013-10-27 03:58:00,